星链-30929 (STARLINK-30929 )

导读

STARLINK-30929是美国SpaceX星链星座中的卫星,于2023年11月20日发射升空,属于星链项目低轨互联网卫星组网的组成部分。星链计划旨在构建全球覆盖的卫星互联网星座,该卫星发射后加入星座运行,为全球尤其是偏远地区提供宽带网络接入服务,推动太空互联网基础设施的搭建。

基本信息
目录编号:
58386
目录名称:
STARLINK-30929
国际标识:
2023-178N
轨道中心:
EARTH
卫星名称:
星链-30929
卫星全名:
星链-30929 (STARLINK-30929 )
卫星状态:
在轨 (已飞行1026 天)
发射日期:
2023-11-20 UTC
国别 :
美国 (US)
星等 :
--
该卫星已列入 空间交会检测服务 Space Conjunction Data Service (SCDS) ,当前飞行风险评估等级: 无高风险
轨道信息
数据来源 国际轨道数据 AOE轨道数据
星历时间 2026-09-11T14:05:40+0800
11小时前
查看轨道信息
2026-09-06T23:00:00+0800
5天前
查看轨道信息
半长轴 6840.857km 6840.81km
偏心率 0.0001353 0.0001304
轨道倾角 53.160° 53.157°
近地点辐角 90.838° 76.152°
升交点赤经 215.288° 236.929°
平近点角 269.277° 260.356°
近地点 461.794km 461.78km
远地点 463.646km 463.566km
周期 93.848分钟 93.847分钟
每日圈数 15.343945 15.344102
详细信息
固有亮度:
5
最大亮度:
0.3
卫星平台:
Starlink v2.0 mini
覆盖范围:
全球
运营商:
太空探索技术公司
运营商所在国:
美国
制造商(研发单位):
太空探索技术公司
制造商所在国:
美国
使用方式:
暂无
卫星简介
星链(Starlink)计划是由太空探索技术公司(SpaceX)提出的一个巨型低轨卫星互联网星座项目,计划在2019年至2024年间在太空搭建由约1.2万颗卫星组成的“星链”网络,其中1584颗将部署在地球上空550千米处的近地轨道,并从2020年开始工作。该卫星仍在工作。
2D轨道图
3D轨道图
轨道高度分析图
轨道倾角分析图
轨道综合分析图
查看轨道综合分析图
交会数据列表
事件ID 空间交会对象 最接近时刻(TCA) 交会距离 交会风险概率(CRP) 交会风险指数(CRI) 操作
CDM_260913-153405-838606-688621
2026-09-13T
15:34:28+0000
1.313 km
极远距离
3.211915E-6 低风险 0.45
CDM_260913-054005-838606-454021
ARCSTONE (64540)
2026-09-13T
05:40:36+0000
2.815 km
极远距离
1.449174E-6 低风险 0.38
CDM_260911-203105-838606-544621
2026-09-11T
20:31:57+0000
2.948 km
极远距离
1.237204E-6 低风险 0.37
CDM_260913-175505-838606-688621
2026-09-13T
17:55:09+0000
2.099 km
极远距离
8.932807E-7 极低风险 0.34
CDM_260913-192805-838606-688621
2026-09-13T
19:28:57+0000
2.588 km
极远距离
6.180027E-7 极低风险 0.31
CDM_260909-152305-181305-838621
2026-09-09T
15:23:30+0000
2.890 km
极远距离
3.590469E-7 极低风险 0.26
与全量物体交会距离演化趋势
与全量物体交会风险概率演化趋势